[[{"header":{"parameterUnit":"m.s-1","parameterCategory":1,"la1":30.2991,"la2":30.254,"lo1":-89.0895,"lo2":-89.0444,"dy":0.0017,"dx":0.0017,"nx":28,"ny":28,"refTime":"2024-10-08T21:00:00:Z","depth":0,"parameterNumber":2,"parameterNumberName":"U-component_of_WINDS"},"data":[0,0,0,0,0,0,0,0,0,0,0,0,0,0,0,0,0,0,0,0,0,0,0,0,0,0,0,0,0,0,0,0,0,0,0,0,0,0,0,0,0,0,0,0,0,0,0,0,0,0,0,0,0,0,0,0,0,0,-0.5691,-0.5691,0,-0.5678,-0.5677,-0.5677,-0.5671,-0.5671,-0.5671,-0.5671,-0.5657,-0.5656,-0.5656,0,0,0,0,0,0,0,0,0,0,0,0,0,-0.5711,-0.571,-0.5691,-0.5691,-0.5691,-0.5678,-0.5677,-0.5677,-0.5671,-0.5671,-0.5671,-0.5671,-0.5657,-0.5657,-0.5656,0,0,0,0,0,0,0,0,0,0,0,0,0,-0.57,-0.571,-0.5691,-0.5686,-0.5686,-0.5678,-0.5677,-0.5677,-0.5671,-0.5671,-0.5671,-0.5671,-0.5657,-0.5657,-0.5656,-0.5652,0,0,-0.5654,-0.5654,0,0,0,0,0,0,0,0,-0.5701,-0.5699,-0.5687,-0.5686,-0.5686,-0.5676,-0.5679,-0.5669,-0.5671,-0.5676,-0.5671,-0.5671,-0.5663,-0.5662,-0.566,-0.5651,-0.5651,-0.5654,-0.5654,-0.5654,-0.5653,0,0,0,0,0,0,0,-0.5701,-0.57,-0.5686,-0.5687,-0.5686,-0.5684,-0.5683,-0.5677,-0.567,-0.5676,-0.5675,-0.5674,-0.5663,-0.566,-0.5659,-0.5651,-0.5654,-0.5654,-0.5653,-0.5653,-0.5637,-0.5637,0,0,0,0,0,0,-0.5703,-0.5701,-0.5686,-0.5685,-0.5693,-0.5684,-0.5682,-0.5679,-0.567,-0.5669,-0.5674,-0.5674,-0.5661,-0.566,-0.5659,-0.5653,-0.5654,-0.5653,-0.5653,-0.5637,-0.5637,-0.5637,0,0,0,0,0,0,-0.5704,-0.5702,-0.5687,-0.5693,-0.5691,-0.5683,-0.568,-0.5679,-0.5676,-0.5668,-0.5667,-0.5673,-0.5661,-0.5659,-0.5653,-0.5652,-0.5653,-0.5652,-0.5637,-0.5637,-0.5637,-0.5641,0,0,0,0,0,0,-0.5704,-0.5702,-0.5701,-0.5693,-0.569,-0.5682,-0.568,-0.5679,-0.5675,-0.5675,-0.5667,-0.5665,-0.5661,-0.5654,-0.5653,-0.5651,-0.5652,-0.5637,-0.5637,-0.5637,-0.5641,-0.5641,-0.5641,0,0,0,0,0,-0.5705,-0.5703,-0.5701,-0.5699,-0.5689,-0.5682,-0.5681,-0.5676,-0.5675,-0.5673,-0.5668,-0.5666,-0.5652,-0.5654,-0.5652,-0.565,-0.5638,-0.5637,-0.5637,-0.5641,-0.5641,-0.5641,0,0,0,0,0,0,-0.5711,-0.5702,-0.57,-0.5695,-0.5689,-0.5681,-0.5679,-0.5676,-0.5671,-0.5671,-0.5664,-0.5663,-0.5657,-0.5653,-0.5655,-0.5645,-0.5645,-0.5644,-0.5648,-0.5648,-0.5648,-0.5649,-0.5651,0,0,0,0,0,-0.5712,-0.5708,-0.5699,-0.5696,-0.5693,-0.5687,-0.5684,-0.568,-0.5674,-0.5672,-0.5666,-0.566,-0.5655,-0.5651,-0.5646,-0.564,-0.5638,-0.5638,-0.5638,-0.5638,-0.5638,-0.5633,-0.5633,-0.5637,-0.5637,-0.5637,0,0,-0.5714,-0.5708,-0.5706,-0.5697,-0.5692,-0.5687,-0.5685,-0.568,-0.5676,-0.5671,-0.5665,-0.566,-0.5653,-0.5647,-0.5644,-0.5644,-0.5636,-0.5638,-0.5638,-0.5638,-0.5633,-0.5633,-0.5633,-0.5636,-0.5636,-0.5636,0,0,-0.5714,-0.571,-0.5706,-0.5701,-0.5694,-0.5689,-0.5688,-0.568,-0.5677,-0.5671,-0.5666,-0.5661,-0.5652,-0.5647,-0.5643,-0.564,-0.5637,-0.5638,-0.5639,-0.5635,-0.5634,-0.5634,-0.5632,-0.5631,-0.5638,-0.5638,-0.5638,0,-0.5717,-0.571,-0.5704,-0.5699,-0.5695,-0.569,-0.5686,-0.5681,-0.5673,-0.567,-0.5669,-0.5657,-0.5652,-0.5644,-0.5643,-0.564,-0.5638,-0.5639,-0.5635,-0.5634,-0.5634,-0.5632,-0.5631,-0.5638,-0.5638,-0.5638,-0.5638,0,-0.5713,-0.5708,-0.5706,-0.5697,-0.5693,-0.5688,-0.5682,-0.5678,-0.5674,-0.567,-0.5662,-0.5656,-0.5649,-0.5647,-0.5643,-0.5638,-0.5637,-0.5636,-0.5635,-0.5634,-0.5632,-0.5631,-0.5638,-0.5638,-0.5638,-0.5638,0,0,-0.5718,-0.5705,-0.5705,-0.57,-0.5691,-0.5687,-0.5682,-0.5674,-0.5671,-0.5665,-0.5659,-0.5651,-0.5649,-0.5645,-0.5641,-0.5637,-0.5634,-0.5636,-0.5636,-0.5635,-0.5626,-0.5627,-0.5626,-0.5632,-0.5632,-0.5632,-0.5626,0,-0.5717,-0.5707,-0.5701,-0.5694,-0.5689,-0.5683,-0.5678,-0.5672,-0.5667,-0.5661,-0.5656,-0.565,-0.5648,-0.5645,-0.5641,-0.5635,-0.5632,-0.5636,-0.5626,-0.5626,-0.5628,-0.5625,-0.5627,-0.5622,-0.5626,-0.5626,-0.5626,0,-0.5714,-0.5708,-0.57,-0.569,-0.5688,-0.5684,-0.5676,-0.5671,-0.5663,-0.5659,-0.5654,-0.5649,-0.5643,-0.5643,-0.5633,-0.5635,-0.5631,-0.5627,-0.5627,-0.5626,-0.5626,-0.5624,-0.5621,-0.562,-0.5624,-0.5625,-0.5625,0,-0.5717,-0.5707,-0.57,-0.5697,-0.5686,-0.5683,-0.5678,-0.567,-0.5666,-0.5659,-0.5655,-0.5648,-0.5643,-0.5637,-0.563,-0.5631,-0.5621,-0.562,-0.5617,-0.5617,-0.5615,-0.5616,-0.5611,-0.5614,-0.5614,-0.5614,-0.5614,0,-0.5716,-0.5712,-0.5701,-0.5698,-0.5691,-0.5685,-0.5679,-0.5673,-0.5666,-0.5661,-0.5655,-0.565,-0.5642,-0.5635,-0.563,-0.5622,-0.562,-0.5617,-0.5615,-0.5617,-0.5617,-0.5614,-0.5614,-0.5613,-0.5613,-0.5613,-0.5614,0,-0.5719,-0.5712,-0.5705,-0.5695,-0.5692,-0.5688,-0.5679,-0.5674,-0.5669,-0.5662,-0.5659,-0.5651,-0.5642,-0.5635,-0.5625,-0.5621,-0.5612,-0.5611,-0.5615,-0.5614,-0.5611,-0.5611,-0.5604,-0.5603,-0.5607,-0.5607,-0.5607,0,-0.5719,-0.5715,-0.5704,-0.57,-0.5695,-0.5689,-0.5684,-0.5676,-0.5671,-0.5661,-0.5658,-0.5649,-0.5642,-0.5629,-0.5621,-0.5613,-0.5611,-0.5609,-0.5609,-0.5611,-0.561,-0.561,-0.5609,-0.5609,-0.5609,-0.5609,-0.5609,0,-0.5719,-0.5715,-0.5709,-0.57,-0.5695,-0.5688,-0.5681,-0.5677,-0.5668,-0.5663,-0.5654,-0.5649,-0.5637,-0.5628,-0.5619,-0.5613,-0.5609,-0.5609,-0.5607,-0.5609,-0.5611,-0.5609,-0.5615,-0.5609,-0.5609,-0.5609,-0.5609,-0.5609,-0.572,-0.5716,-0.5707,-0.5699,-0.5693,-0.5686,-0.5681,-0.5674,-0.5667,-0.5657,-0.5653,-0.5644,-0.5635,-0.5622,-0.5616,-0.5608,-0.5608,-0.5606,-0.5605,-0.5605,-0.5605,-0.5612,-0.5607,-0.5607,-0.5607,-0.5607,-0.5607,0,-0.5719,-0.5713,-0.5706,-0.5696,-0.5689,-0.5686,-0.5677,-0.5672,-0.5664,-0.5656,-0.5649,-0.5638,-0.5629,-0.5621,-0.5611,-0.5606,-0.5604,-0.5604,-0.5604,-0.5603,-0.5607,-0.5608,-0.5606,-0.5606,-0.5606,-0.5606,-0.5606,-0.5606,-0.5718,-0.571,-0.5705,-0.5694,-0.5688,-0.5679,-0.5674,-0.5667,-0.5661,-0.5649,-0.5642,-0.5636,-0.5627,-0.5616,-0.5608,-0.5605,-0.5602,-0.5602,-0.5599,-0.5602,-0.5603,-0.5603,-0.5604,-0.5601,-0.5601,-0.5595,-0.5595,-0.5595]},{"header":{"parameterUnit":"m.s-1","parameterCategory":1,"la1":30.2991,"la2":30.254,"lo1":-89.0895,"lo2":-89.0444,"dy":0.0017,"dx":0.0017,"nx":28,"ny":28,"refTime":"2024-10-08T21:00:00:Z","depth":0,"parameterNumber":3,"parameterNumberName":"V-component_of_WINDS"},"data":[0,0,0,0,0,0,0,0,0,0,0,0,0,0,0,0,0,0,0,0,0,0,0,0,0,0,0,0,0,0,0,0,0,0,0,0,0,0,0,0,0,0,0,0,0,0,0,0,0,0,0,0,0,0,0,0,0,0,-4.8198,-4.8199,0,-4.8287,-4.8288,-4.8289,-4.8306,-4.8305,-4.8305,-4.8304,-4.839,-4.8393,-4.8396,0,0,0,0,0,0,0,0,0,0,0,0,0,-4.8039,-4.8042,-4.8197,-4.8199,-4.82,-4.8287,-4.8288,-4.8289,-4.8306,-4.8305,-4.8304,-4.8304,-4.8389,-4.8392,-4.8396,0,0,0,0,0,0,0,0,0,0,0,0,0,-4.8116,-4.8043,-4.8197,-4.8219,-4.8222,-4.8286,-4.8288,-4.8289,-4.8306,-4.8305,-4.8304,-4.8303,-4.8388,-4.8392,-4.8396,-4.8444,0,0,-4.841,-4.8412,0,0,0,0,0,0,0,0,-4.8111,-4.8122,-4.8215,-4.8218,-4.8221,-4.8284,-4.8263,-4.8341,-4.8307,-4.8274,-4.8304,-4.8303,-4.8355,-4.8362,-4.8381,-4.8448,-4.8452,-4.841,-4.8413,-4.8415,-4.8416,0,0,0,0,0,0,0,-4.8106,-4.8118,-4.8233,-4.8216,-4.822,-4.8223,-4.8233,-4.8278,-4.8319,-4.8277,-4.8278,-4.8289,-4.8357,-4.8377,-4.8383,-4.8453,-4.841,-4.8414,-4.8417,-4.8418,-4.8566,-4.8567,0,0,0,0,0,0,-4.8098,-4.8113,-4.823,-4.8235,-4.8163,-4.8227,-4.8238,-4.8265,-4.8319,-4.8326,-4.829,-4.8289,-4.837,-4.8378,-4.8386,-4.8447,-4.8415,-4.8419,-4.8421,-4.8565,-4.8566,-4.8568,0,0,0,0,0,0,-4.8094,-4.8108,-4.8226,-4.8175,-4.819,-4.8231,-4.8261,-4.8267,-4.8287,-4.8329,-4.8335,-4.8303,-4.8369,-4.838,-4.843,-4.845,-4.8421,-4.8425,-4.8563,-4.8565,-4.8567,-4.8569,0,0,0,0,0,0,-4.8089,-4.8106,-4.8125,-4.8175,-4.8193,-4.827,-4.8262,-4.827,-4.8295,-4.8296,-4.8343,-4.8349,-4.8369,-4.8424,-4.8435,-4.8456,-4.8428,-4.8562,-4.8564,-4.8566,-4.8567,-4.857,-4.8573,0,0,0,0,0,-4.8084,-4.812,-4.8126,-4.814,-4.8218,-4.8271,-4.8281,-4.8304,-4.8297,-4.8316,-4.8343,-4.8348,-4.8447,-4.8429,-4.8441,-4.8464,-4.856,-4.8563,-4.8566,-4.8566,-4.857,-4.8573,0,0,0,0,0,0,-4.8069,-4.8127,-4.8134,-4.8188,-4.8225,-4.8274,-4.8298,-4.8308,-4.8345,-4.8344,-4.837,-4.8381,-4.843,-4.8452,-4.8431,-4.8514,-4.8503,-4.8509,-4.8498,-4.8503,-4.8506,-4.8499,-4.8432,0,0,0,0,0,-4.8072,-4.8112,-4.816,-4.8203,-4.8222,-4.8257,-4.8281,-4.8297,-4.8335,-4.8349,-4.838,-4.8415,-4.8455,-4.848,-4.8518,-4.8571,-4.8582,-4.8593,-4.8596,-4.8598,-4.8602,-4.8634,-4.864,-4.8577,-4.8577,-4.8577,0,0,-4.8079,-4.8116,-4.8139,-4.8201,-4.8232,-4.8272,-4.827,-4.8311,-4.8341,-4.8355,-4.8406,-4.843,-4.8471,-4.8523,-4.8548,-4.8543,-4.8623,-4.8602,-4.8604,-4.8607,-4.8638,-4.8644,-4.8649,-4.8579,-4.8579,-4.8579,0,0,-4.8112,-4.8143,-4.8184,-4.8215,-4.8262,-4.8286,-4.8296,-4.8345,-4.8362,-4.8414,-4.8426,-4.8461,-4.8527,-4.8558,-4.8581,-4.863,-4.8636,-4.8641,-4.8657,-4.8688,-4.8693,-4.8698,-4.8716,-4.8722,-4.8645,-4.8645,-4.8645,0,-4.8113,-4.8176,-4.8203,-4.8246,-4.8273,-4.8291,-4.8333,-4.8361,-4.8417,-4.8435,-4.843,-4.8516,-4.8545,-4.8606,-4.8618,-4.8636,-4.8649,-4.8635,-4.869,-4.8695,-4.87,-4.8718,-4.8724,-4.8646,-4.8646,-4.8646,-4.8646,0,-4.8176,-4.8219,-4.8246,-4.8304,-4.8334,-4.8375,-4.8409,-4.8437,-4.8451,-4.8475,-4.8528,-4.8564,-4.8611,-4.8627,-4.8639,-4.869,-4.8686,-4.8685,-4.8674,-4.8706,-4.8723,-4.873,-4.8646,-4.8646,-4.8646,-4.8646,0,0,-4.8199,-4.8275,-4.8284,-4.8311,-4.8366,-4.8399,-4.8442,-4.8491,-4.8515,-4.8553,-4.859,-4.8648,-4.8649,-4.8676,-4.8692,-4.8719,-4.8757,-4.8715,-4.8716,-4.8722,-4.8817,-4.8818,-4.8826,-4.8762,-4.8763,-4.8765,-4.8814,0,-4.8239,-4.8319,-4.8346,-4.8411,-4.8452,-4.8472,-4.8509,-4.8547,-4.8571,-4.8609,-4.8635,-4.8677,-4.8674,-4.8691,-4.8718,-4.8747,-4.8777,-4.8743,-4.8796,-4.8798,-4.8786,-4.8834,-4.8835,-4.888,-4.8821,-4.8822,-4.8823,0,-4.8296,-4.8339,-4.8409,-4.8462,-4.848,-4.8514,-4.8562,-4.8598,-4.8641,-4.8657,-4.869,-4.8705,-4.8751,-4.8738,-4.8802,-4.8778,-4.8802,-4.8819,-4.8822,-4.8827,-4.8812,-4.8842,-4.8895,-4.8902,-4.8834,-4.8833,-4.8832,0,-4.8308,-4.8383,-4.8435,-4.8458,-4.852,-4.8544,-4.8571,-4.8613,-4.8642,-4.8684,-4.8703,-4.8748,-4.8773,-4.8808,-4.8835,-4.8823,-4.8897,-4.8886,-4.8912,-4.8911,-4.8926,-4.8924,-4.8983,-4.894,-4.894,-4.894,-4.894,0,-4.8349,-4.8392,-4.8442,-4.8474,-4.8523,-4.8554,-4.8601,-4.8628,-4.8667,-4.8705,-4.8723,-4.8758,-4.8792,-4.8831,-4.8852,-4.8903,-4.8913,-4.8928,-4.8933,-4.8926,-4.8925,-4.8942,-4.8939,-4.8942,-4.8941,-4.8941,-4.8941,0,-4.837,-4.8405,-4.8464,-4.852,-4.8535,-4.8568,-4.8616,-4.8648,-4.8674,-4.8722,-4.8735,-4.8776,-4.8824,-4.8855,-4.8914,-4.8929,-4.8985,-4.8988,-4.8971,-4.8973,-4.8998,-4.8995,-4.907,-4.9082,-4.903,-4.903,-4.9031,0,-4.8394,-4.8428,-4.8489,-4.8517,-4.8544,-4.8588,-4.8619,-4.8652,-4.8682,-4.8737,-4.8762,-4.8812,-4.8853,-4.8928,-4.8962,-4.9009,-4.9014,-4.9037,-4.9021,-4.9014,-4.9016,-4.9014,-4.9018,-4.904,-4.904,-4.904,-4.9041,0,-4.8434,-4.8451,-4.8495,-4.8547,-4.8583,-4.8624,-4.8665,-4.8687,-4.8727,-4.876,-4.8811,-4.8843,-4.8906,-4.8955,-4.9006,-4.9032,-4.9043,-4.9046,-4.9055,-4.9048,-4.9037,-4.9045,-4.8978,-4.9044,-4.9043,-4.9043,-4.9043,-4.9043,-4.8458,-4.849,-4.8539,-4.8588,-4.8623,-4.8662,-4.8696,-4.8729,-4.8772,-4.8828,-4.8844,-4.8897,-4.8942,-4.9011,-4.9039,-4.9081,-4.9078,-4.909,-4.9093,-4.9096,-4.9097,-4.9031,-4.9089,-4.9089,-4.9089,-4.9089,-4.9089,0,-4.85,-4.8533,-4.8578,-4.8637,-4.8677,-4.8687,-4.8734,-4.8765,-4.8812,-4.8854,-4.8896,-4.8955,-4.9003,-4.9044,-4.9094,-4.9119,-4.9126,-4.9131,-4.913,-4.9136,-4.9095,-4.9084,-4.9125,-4.9125,-4.9125,-4.9125,-4.9125,-4.9125,-4.8526,-4.8581,-4.8605,-4.8678,-4.8711,-4.8765,-4.8791,-4.8828,-4.8862,-4.8928,-4.8969,-4.8996,-4.9038,-4.9092,-4.9137,-4.9147,-4.9165,-4.917,-4.9181,-4.9142,-4.9138,-4.9135,-4.9124,-4.9173,-4.9173,-4.9219,-4.9219,-4.9219]}]]